Regional Weather Roundup
Issued by NWS

Home | Current Version | Previous Version | Text Only | Print | Product List | Glossary On
Versions: 1 2 3 4 5 6 7 8 9 10 11 12 13 14 15 16 17 18 19 20 21 22 23 24 25 26 27 28 29 30 31 32 33 34 35 36 37 38 39 40 41 42 43 44 45 46 47 48 49 50
000
ASUS43 KMPX 170401
RWRMN
WEATHER ROUNDUP FOR MINNESOTA
NATIONAL WEATHER SERVICE TWIN CITIES/CHANHASSEN MN
1100 PM CDT TUE SEP 16 2014


NOTE: "FAIR" INDICATES FEW OR NO CLOUDS BELOW 12,000 FEET WITH NO
SIGNIFICANT WEATHER AND/OR OBSTRUCTIONS TO VISIBILITY. N/A MEANS
CURRENT SKY AND/OR WEATHER CONDITIONS ARE NOT AVAILABLE.

MNZ060>063-068>070-170500-
   Twin Cities Metro

CITY           SKY/WX    TMP DP  RH WIND       PRES   REMARKS
TWIN CITIES    PTCLDY    57  45  64 SE3       30.01S
ST PAUL        MOCLDY    54  49  83 CALM      30.02S
CRYSTAL        CLOUDY    55  48  77 CALM      30.00S
BLAINE         CLOUDY    55  50  82 CALM      30.01S
LAKEVILLE      MOCLDY    46  46 100 CALM      30.02S
EDEN PRAIRIE   CLOUDY    57  51  80 CALM      30.00S
SOUTH ST PAUL  CLOUDY    54  48  79 CALM      30.01F
LAKE ELMO      MOCLDY    46  46 100 CALM      30.03S
$$
MNZ001>005-007-008-013>017-022>024-027-028-170500-
   Northwest Minnesota

CITY           SKY/WX    TMP DP  RH WIND       PRES   REMARKS
BEMIDJI        CLEAR     51  42  70 SW3       29.96S
HALLOCK        CLEAR     50  43  76 S7        29.89S
ROSEAU         MOCLDY    52  46  82 SW7       29.89F
WARROAD        CLOUDY    54  50  87 CALM      29.89F
THIEF RVR FALL CLEAR     52  39  62 S7        29.93S
CROOKSTON      CLEAR     50  43  76 S8        29.93F
FOSSTON        CLEAR     45  39  81 S6        29.96S
DETROIT LAKES  PTCLDY    54  45  71 CALM      29.98S
MOORHEAD       CLEAR     55  48  76 E5        29.94S
PARK RAPIDS    CLEAR     48  41  76 CALM      29.98S
MAHNOMEN       FAIR      51  42  71 SE6       29.96S
$$
MNZ006-009>011-018-025>026-170500-
   North Central Minnesota

CITY           SKY/WX    TMP DP  RH WIND       PRES   REMARKS
BAUDETTE       CLOUDY    53  49  86 S3        29.89F
FLAG ISLAND    CLOUDY    57  54  88 S7        29.87F
INTL FALLS     CLOUDY    51  49  92 S3        29.91F
WASKISH        PTCLDY    57  46  67 CALM      29.92F
BIG FORK       PTCLDY    50  45  81 SW6       29.95F
LONGVILLE      CLEAR     48  46  93 SW3       29.97F
GRAND RAPIDS   PTCLDY    52  41  66 S5        29.97S
CRANE LAKE     CLOUDY    48  48 100 CALM      29.95S
ORR            CLOUDY    52  46  82 CALM      29.91F
COOK           MOCLDY    55  46  71 SW5       29.95S
WALKER         FAIR      51  41  69 S5        29.97F
$$
MNZ012-019>021-037-170500-
   Northeast Minnesota

CITY           SKY/WX    TMP DP  RH WIND       PRES   REMARKS
DULUTH         CLEAR     55  42  61 SW12      29.98F
ELY            MOCLDY    50  46  87 CALM      29.95S
HIBBING        CLOUDY    51  43  74 CALM      29.97S
EVELETH        PTCLDY    52  43  71 W6        29.98S
DULUTH HARBOR  CLEAR     54  46  76 SW12      29.98F
TWO HARBORS    CLOUDY    48  43  81 CALM      29.96S
SILVER BAY     PTCLDY    48  48 100 CALM      29.96R
GRAND MARAIS     N/A     50  45  83 NE13G21   30.00S
G MARAIS ARPRT CLOUDY    45  41  87 CALM      29.99F
$$
MNZ029>031-032-039>041-046>048-054>057-064-170500-
   West Central Minnesota

CITY           SKY/WX    TMP DP  RH WIND       PRES   REMARKS
FERGUS FALLS   PTCLDY    57  45  62 SE8       29.95S
WHEATON        PTCLDY    48  46  93 SE7       29.96S
MORRIS         PTCLDY    55  48  76 SE5       29.95S
ALEXANDRIA     PTCLDY    52  46  80 SE7       29.98F
ELBOW LAKE     FAIR      56  48  74 SE6       29.96S
WADENA         PTCLDY    46  43  87 CALM      29.97F
GLENWOOD       CLEAR     50  46  87 E5        29.99S
APPLETON       CLOUDY    63  50  63 S6        29.95F
BENSON         PTCLDY    57  50  77 SW8       29.96S
ORTONVILLE     MOCLDY    61  50  67 S7        29.95S
MADISON        CLOUDY    63  54  72 SE6       29.96S
WILLMAR        CLOUDY    59  48  67 S5        29.99F
$$
MNZ033>034-036-042>043-049>051-058-059-170500-
   Central Minnesota

CITY           SKY/WX    TMP DP  RH WIND       PRES   REMARKS
ST CLOUD       MOCLDY    57  47  69 SE5       29.99F
SAUK CENTRE    MOCLDY    53  47  82 SE5       29.99S
PAYNESVILLE    CLEAR     55  46  72 E5        29.99S
AITKIN         CLEAR     45  39  81 CALM      29.98S
PINE RIVER     CLEAR     45  43  93 CALM      30.02S
BRAINERD       CLEAR     45  43  93 CALM      29.99F
STAPLES        MOCLDY    46  45  93 CALM      29.98F
LONG PRAIRIE   FAIR      52  46  82 CALM      29.98F
LITTLE FALLS   PTCLDY    50  45  81 CALM      29.99F
LITCHFIELD     CLOUDY    57  54  88 CALM      30.00S
BUFFALO        CLOUDY    56  47  73 CALM      30.01S
MAPLE LAKE     MOCLDY    56  51  84 CALM      30.01S
$$
MNZ037-044-045-052-053-170500-
   East Central Minnesota

CITY           SKY/WX    TMP DP  RH WIND       PRES   REMARKS
PRINCETON      CLOUDY    54  48  82 E1        30.01S
MORA           CLEAR     43  43 100 CALM      30.02F FOG
CAMBRIDGE      CLEAR     52  43  71 CALM      30.00S
RUSH CITY      PTCLDY    44  43  95 CALM      30.02S
MOOSE LAKE     CLEAR     43  43 100 CALM      29.99S
HINCKLEY       FAIR      43  41  93 CALM      30.01S
CLOQUET        CLEAR     52  43  71 SW6       29.99S
MCGREGOR       CLEAR     48  45  87 S5        30.00S
$$
MNZ071>073-080-081-089-090-097-098-170500-
   Southwest Minnesota

CITY           SKY/WX    TMP DP  RH WIND       PRES   REMARKS
MONTEVIDEO     CLOUDY    61  52  72 CALM      29.98S
GRANITE FALLS  CLOUDY    59  51  75 SE6       29.99S
CANBY          CLOUDY    59  52  77 SE5       29.97F
MARSHALL       CLOUDY    61  48  63 S9        29.96F
REDWOOD FALLS  CLOUDY    61  50  67 S9        29.98F
OLIVIA         CLOUDY    59  50  72 S5        29.98S
PIPESTONE      CLOUDY    59  48  67 S8        29.98S
WINDOM         CLOUDY    57  50  77 S3        30.01S
WORTHINGTON    CLOUDY    57  46  67 S8        30.01F
JACKSON        PTCLDY    55  46  71 S6        30.02F
TRACY          CLOUDY    59  51  75 CALM      29.99S
SLAYTON        CLOUDY    56  49  77 CALM      30.00F
$$
MNZ065>067-074>077-082>085-091>093-170500-
   South Central Minnesota

CITY           SKY/WX    TMP DP  RH WIND       PRES   REMARKS
MANKATO        CLOUDY    57  45  62 S6        30.01S
NEW ULM        CLOUDY    57  50  77 S5        30.00F
ST JAMES       MOCLDY    57  48  72 S3        30.02S
FAIRMONT       MOCLDY    54  45  71 S7        30.02S
GLENCOE        CLOUDY    59  47  64 CALM      30.00S
FARIBAULT      CLOUDY    57  45  62 S3        30.02S
OWATONNA       CLOUDY    55  46  71 S6        30.02S
WASECA         CLOUDY    54  43  66 S3        30.04S
ALBERT LEA     PTCLDY    52  48  87 SW3       30.03F
$$
MNZ078>079-086>088-094>096-170500-
   Southeast Minnesota

CITY           SKY/WX    TMP DP  RH WIND       PRES   REMARKS
ROCHESTER      PTCLDY    47  44  90 S6        30.05F
RED WING       CLEAR     46  45  93 CALM      30.02S
STANTON        CLEAR     50  44  80 CALM      30.01S
DODGE CENTER   PTCLDY    50  45  81 S8        30.03F
WINONA         CLEAR     50  46  87 CALM      30.05S
AUSTIN         CLEAR     48  45  87 CALM      30.04S
PRESTON        CLEAR     49  47  93 S6        30.06S
$$
ABBREVIATIONS USED IN REMARKS
   TC - TEMPERATURES IN CELSIUS
  WCI - WIND CHILL INDEX
   HX - HEAT INDEX
  VSB - VISIBILITY
$$


USA.gov is the U.S. government's official web portal to all federal, state and local government web resources and services.